Location: Radomski Observatory
(40.2854°N, 79.5145°W)
Time: 23:38:58
(UTC-04:00)

Daily predictions for brighter satellites

Satellite Brightness Start Highest point End
(mag) Time Altitude Azimuth Time Altitude Azimuth Time Altitude Azimuth
ATLAS CENTAUR R/B 3.7 19:27:11 10° S 19:31:33 44° ESE 19:43:43 10° NE
Meteor 1-22 Rocket 4.4 19:29:17 10° SSE 19:34:22 44° E 19:39:22 10° NNE
Cosmos 2219 Rocket 3.2 19:31:08 10° SW 19:36:35 52° WNW 19:42:07 10° NNE
Cosmos 921 Rocket 3.5 19:32:25 10° NNW 19:36:35 63° WSW 19:40:42 10° S
Tiangong 2 4.0 19:35:45 10° WSW 19:37:09 12° SW 19:38:34 10° S
Cosmos 2233 Rocket 4.1 19:31:42 10° S 19:37:59 85° E 19:44:21 10° N
USA 215 3.4 19:32:45 10° NE 19:39:13 61° SE 19:45:39 10° SSW
Cosmos 1441 Rocket 3.2 19:36:01 10° N 19:39:47 87° W 19:43:30 10° S
Cosmos 2278 Rocket 2.3 19:35:00 10° NNW 19:40:42 83° WSW 19:46:20 10° SSE
Meteor 2-5 Rocket 3.9 19:36:09 10° NNW 19:41:49 82° W 19:47:21 10° S
Meteor 1-29 4.2 19:41:02 10° NE 19:43:48 22° E 19:46:34 10° SSE
Cosmos 2297 3.9 19:38:45 10° NNW 19:44:18 52° ENE 19:49:47 10° SE
METEOR-M 4.4 19:39:14 10° SE 19:44:18 46° ENE 19:49:24 10° N
Meteor 1-24 Rocket 3.7 19:40:46 10° N 19:46:25 63° ENE 19:51:49 10° SSE
Meteor 1-28 Rocket 3.2 19:43:03 10° NNE 19:46:45 59° E 19:50:24 10° S
Cosmos 1378 3.5 19:44:20 10° N 19:47:54 41° E 19:51:26 10° SSE
Cosmos 1607 4.5 19:42:24 10° SW 19:48:31 63° NW 19:54:39 10° NNE
Cosmos 1707 3.0 19:46:45 10° NNW 19:50:35 71° W 19:54:24 10° S
SJ-6B 2.8 19:47:30 10° SSE 19:51:25 78° ENE 19:55:29 10° N
Cosmos 1076 Rocket 4.1 19:48:00 10° N 19:51:59 35° ENE 19:55:59 10° SE
Cosmos-2242 4.1 19:51:50 10° SE 19:55:20 24° E 19:58:51 10° NE
ATLAS 3B R/B 4.3 19:48:55 10° WSW 19:55:58 39° NW 20:02:49 10° NNE
Cosmos 1452 Rocket 4.3 19:52:06 10° N 19:56:49 32° ENE 20:01:28 10° SE
Cosmos 1758 4.2 19:55:35 10° SSE 19:59:03 28° E 20:02:35 10° NNE
Cosmos 2369 Rocket 4.1 19:57:25 10° NNE 19:59:35 12° NE 20:01:45 10° ENE
Helios 1B rocket 2.6 19:56:33 10° NNE 20:00:32 47° E 20:04:30 10° S
SeaSat 1 3.6 20:00:01 10° NE 20:03:48 22° ESE 20:07:33 10° SSE
Cosmos 1408 Rocket 3.9 20:01:03 10° N 20:05:14 43° ENE 20:09:21 10° SSE
Resurs 01 Rocket 1.6 20:04:23 10° SSE 20:08:47 66° ENE 20:13:12 10° N
NOSS 3-2 (A) 3.4 20:04:56 10° SSW 20:10:57 75° ESE 20:17:30 10° NE
Okean 3 Rocket 4.0 20:07:11 10° NNW 20:11:43 67° W 20:16:13 10° S
Cosmos 2333 Rocket 3.9 20:06:32 10° SW 20:11:49 37° WNW 20:17:09 10° N
FengYun 1-2 T 4.3 20:06:34 10° SSE 20:11:57 57° ENE 20:17:20 10° N
Resurs 1-3 3.7 20:08:34 10° SSE 20:12:51 56° ENE 20:17:09 10° N
CZ-4B DEB 3.5 20:15:36 23° ESE 20:16:58 34° ENE 20:19:59 10° N
Spot 1 4.4 20:14:12 10° S 20:19:02 80° WSW 20:23:37 10° NNW
Atlas Centaur 2 4.0 20:15:42 10° WSW 20:23:14 36° SSW 20:28:59 15° SE
ATLAS CENTAUR R/B 2.4 20:20:19 10° NW 20:24:18 43° WSW 20:27:57 10° S
Meteor 1-21 Rocket 4.3 20:20:36 10° N 20:26:02 51° ENE 20:31:13 11° SSE
ALOS 2.2 20:26:02 10° SSE 20:30:35 61° ENE 20:35:12 10° N
Cosmos 1743 Rocket 4.0 20:27:46 10° N 20:31:59 40° ENE 20:33:29 30° ESE
In-Cosmos 22 4.2 20:26:43 10° N 20:32:32 81° E 20:38:17 10° SSE
Cosmos 1674 3.9 20:29:40 10° NNE 20:32:23 25° ENE 20:32:23 25° ENE
Cosmos 1269 Rocket 4.4 20:28:11 10° SSE 20:33:01 38° ESE 20:37:52 10° NE
Nadezhda 4 Rocket 4.1 20:27:01 10° N 20:33:09 52° ENE 20:38:48 12° SSE
Cosmos 1092 Rocket 4.3 20:32:13 10° N 20:38:04 41° ENE 20:40:56 26° SE
ASTRO E2 4.2 20:35:02 10° SW 20:38:15 23° S 20:38:55 22° SSE
Spot 2 Rocket 4.0 20:33:33 10° S 20:38:32 62° WSW 20:43:32 10° NNW
Cosmos 1048 Rocket 4.5 20:35:05 10° SSE 20:39:56 37° ESE 20:44:45 10° NE
GP-B 4.2 20:36:21 10° NNE 20:39:10 26° ENE 20:39:10 26° ENE
Cosmos 2237 Rocket 4.4 20:35:41 10° WSW 20:40:24 26° NW 20:45:09 10° N
NOSS 3-3 (A) 4.5 20:35:02 10° NW 20:42:33 89° NE 20:48:48 18° SSE
NOSS 3-3 (C) 4.5 20:35:08 10° NW 20:42:39 88° NE 20:48:51 18° SSE
OAO 3 Rocket 3.7 20:40:19 10° WSW 20:44:52 44° S 20:46:04 36° SE
Helios 1A 3.9 20:42:37 10° S 20:46:40 49° W 20:50:45 10° NNW
NOSS 3-2 (C) 3.6 20:41:53 10° SW 20:47:56 77° NW 20:54:35 10° NNE
Envisat 4.1 20:50:02 25° NE 20:50:02 25° NE 20:53:38 10° NNE
CZ-4C R/B 4.3 20:45:13 10° W 20:49:47 26° NW 20:54:50 10° NNE
CENTAUR R/B 3.6 20:46:16 10° S 20:48:51 22° SSE 20:48:51 22° SSE
Cosmos 1634 Rocket 4.3 20:49:15 29° SE 20:51:42 41° E 20:57:27 10° NNE
ATLAS 5 CENTAUR R/B 1.8 20:47:20 10° SW 20:52:05 82° NW 20:57:17 10° NNE
ASTEX 1 3.2 20:47:25 10° N 20:52:21 74° E 20:57:13 10° S
CZ-2D R/B 3.2 20:52:09 40° SSE 20:53:29 89° E 20:57:24 10° NNW
Cosmos 1953 2.8 20:50:36 10° SSW 20:54:33 59° W 20:58:29 10° N
SL-16 R/B 3.5 20:53:26 10° SW 20:58:45 40° WNW 21:04:07 10° N
Cosmos 2034 Rocket 4.5 20:56:41 10° SSW 21:02:50 62° W 21:09:07 10° N
H-2A R/B 4.4 21:14:39 14° NNE 21:14:39 14° NNE 21:15:27 10° NNE
H-2A R/B 3.5 21:12:12 39° SSW 21:13:16 52° W 21:17:06 10° NNW
Cosmos 724 4.4 21:08:37 10° SW 21:14:32 77° WNW 21:20:38 10° NNE
USA 215 4.2 21:15:56 10° NE 21:22:03 44° NNW 21:28:09 10° W
ERS-1 Rocket 3.3 21:34:40 56° N 21:34:40 56° N 21:38:40 10° N
Cosmos 1627 Rocket 4.3 21:30:48 10° N 21:36:58 77° ENE 21:36:58 77° ENE
Cosmos 1842 Rocket 4.5 21:39:27 45° WNW 21:39:27 45° WNW 21:43:13 10° N
SeaSat 1 3.3 21:36:45 10° NNE 21:41:30 48° WNW 21:46:13 10° SW
Cosmos 2369 Rocket 2.5 21:38:59 10° NNW 21:43:36 58° N 21:43:36 58° N
Cosmos 839 Rocket 4.1 21:41:41 10° NNW 21:49:20 74° NE 21:49:20 74° NE
Cosmos 1943 Rocket 3.6 21:50:54 10° N 21:53:53 28° NNE 21:53:53 28° NNE
Exosat Rocket 4.5 21:59:21 10° NNW 22:06:04 88° ENE 22:06:20 85° SE
Cosmos 1655 Rocket 4.4 22:07:32 10° NNW 22:12:38 57° NW 22:12:38 57° NW
